Telluride, CO

10:09 PM MST on December 13, 2019 (GMT -0700)
Telluride Regional

Weather History for KTEX - October, 2019

Change the Weather History Date:

Saturday, October 12, 2019

  Actual Average Record
Temperature  
Mean Temperature 42 °F -  
Max Temperature 53 °F 52 °F 68 °F (2015)
Min Temperature 30 °F 33 °F 21 °F (2001)
Degree Days  
Heating Degree Days 24    
Moisture  
Dew Point -5 °F    
Average Humidity 17    
Maximum Humidity 27    
Minimum Humidity 6    
Precipitation  
Precipitation 0.00 in - - ()
Sea Level Pressure  
Sea Level Pressure 30.24 in    
Wind  
Wind Speed 6 mph (South)    
Max Wind Speed 15 mph    
Max Gust Speed 20 mph    
Visibility 10 miles    
Events      
Averages and records for this station are not official NWS values.
T = Trace of Precipitation, MM = Missing Value Source: NWS Daily Summary

Daily Weather History Graph

Daily Weather History Graph

Search for Another Location

Airport or City:

Astronomy

Oct. 12, 2019 Rise Set
Actual Time 7:17 AM MDT 6:38 PM MDT
Civil Twilight 6:50 AM MDT 7:04 PM MDT
Nautical Twilight 6:20 AM MDT 7:35 PM MDT
Astronomical Twilight 5:49 AM MDT 8:05 PM MDT
Moon 6:33 PM MDT (10/12) 5:59 AM MDT (10/12)
Length of Visible Light 12h 14m
Length of Day
11h 21m
Waxing Gibbous, 99% of the Moon is Illuminated
Oct 12
Waxing Gibbous
Oct 13
Full
Oct 21
Last Quarter
Oct 27
New
Nov 4
First Quarter

Hourly Weather History & Observations

Time (MDT) Temp. Windchill Dew Point Humidity Pressure Visibility Wind Dir Wind Speed Gust Speed Precip Events Conditions
12:15 AM 32.0 °F 27.5 °F 1.4 °F 27% 30.31 in 10.0 mi ESE 4.6 mph - N/A   Clear
12:35 AM 32.0 °F 26.4 °F 1.4 °F 27% 30.30 in 10.0 mi SSE 5.8 mph - N/A   Clear
12:55 AM 32.0 °F 26.4 °F 1.4 °F 27% 30.29 in 10.0 mi SE 5.8 mph - N/A   Clear
1:15 AM 32.0 °F 26.4 °F 1.4 °F 27% 30.29 in 10.0 mi SE 5.8 mph - N/A   Clear
1:35 AM 32.0 °F 26.4 °F -0.4 °F 25% 30.29 in 10.0 mi SE 5.8 mph - N/A   Clear
1:55 AM 30.2 °F 25.4 °F -0.4 °F 27% 30.29 in 10.0 mi SE 4.6 mph - N/A   Clear
2:15 AM 32.0 °F 24.8 °F -0.4 °F 25% 30.29 in 10.0 mi SE 8.1 mph - N/A   Clear
2:35 AM 30.2 °F 23.4 °F -2.2 °F 25% 30.29 in 10.0 mi SE 6.9 mph - N/A   Clear
2:55 AM 32.0 °F 26.4 °F -4.0 °F 21% 30.29 in 10.0 mi SSE 5.8 mph - N/A   Clear
3:15 AM 30.2 °F 26.7 °F -4.0 °F 23% 30.29 in 10.0 mi SSE 3.5 mph - N/A   Clear
3:35 AM 32.0 °F 26.4 °F -4.0 °F 21% 30.28 in 10.0 mi SE 5.8 mph - N/A   Clear
3:55 AM 30.2 °F - -4.0 °F 23% 30.28 in 10.0 mi Calm Calm - N/A   Clear
4:15 AM 32.0 °F 26.4 °F -5.8 °F 20% 30.28 in 10.0 mi SE 5.8 mph - N/A   Clear
4:35 AM 32.0 °F 27.5 °F -5.8 °F 20% 30.29 in 10.0 mi SE 4.6 mph - N/A   Clear
4:55 AM 32.0 °F 28.7 °F -7.6 °F 18% 30.27 in 10.0 mi SSE 3.5 mph - N/A   Clear
5:15 AM 32.0 °F 25.6 °F -5.8 °F 20% 30.27 in 10.0 mi SSE 6.9 mph - N/A   Clear
5:35 AM 30.2 °F 23.4 °F -5.8 °F 21% 30.27 in 10.0 mi SSE 6.9 mph - N/A   Clear
5:55 AM 30.2 °F 21.9 °F -7.6 °F 19% 30.27 in 10.0 mi SE 9.2 mph - N/A   Clear
6:15 AM 30.2 °F 24.3 °F -7.6 °F 19% 30.27 in 10.0 mi SSE 5.8 mph - N/A   Clear
6:35 AM 32.0 °F 25.6 °F -7.6 °F 18% 30.27 in 10.0 mi SE 6.9 mph - N/A   Clear
6:55 AM 30.2 °F 25.4 °F -9.4 °F 18% 30.26 in 10.0 mi SSE 4.6 mph - N/A   Clear
7:15 AM 30.2 °F 24.3 °F -7.6 °F 19% 30.26 in 10.0 mi ESE 5.8 mph - N/A   Clear
7:35 AM 30.2 °F 24.3 °F -7.6 °F 19% 30.26 in 10.0 mi SE 5.8 mph - N/A   Clear
7:55 AM 30.2 °F 23.4 °F -7.6 °F 19% 30.26 in 10.0 mi SE 6.9 mph - N/A   Clear
8:15 AM 32.0 °F 28.7 °F -9.4 °F 17% 30.26 in 10.0 mi SSE 3.5 mph - N/A   Clear
8:35 AM 33.8 °F 30.8 °F -9.4 °F 15% 30.26 in 10.0 mi SE 3.5 mph - N/A   Clear
8:55 AM 35.6 °F 32.8 °F -9.4 °F 14% 30.26 in 10.0 mi SSE 3.5 mph - N/A   Clear
9:15 AM 37.4 °F - -9.4 °F 13% 30.26 in 10.0 mi Calm Calm - N/A   Clear
9:35 AM 39.2 °F - -7.6 °F 14% 30.26 in 10.0 mi Calm Calm - N/A   Clear
9:55 AM 41.0 °F - -7.6 °F 13% 30.26 in 10.0 mi Calm Calm - N/A   Clear
10:15 AM 42.8 °F - -9.4 °F 11% 30.25 in 10.0 mi Calm Calm - N/A   Clear
10:35 AM 44.6 °F - -13.0 °F 9% 30.25 in 10.0 mi Calm Calm - N/A   Clear
10:55 AM 46.4 °F - -13.0 °F 8% 30.25 in 10.0 mi Calm Calm - N/A   Clear
11:15 AM 48.2 °F - -13.0 °F 7% 30.24 in 10.0 mi West 6.9 mph - N/A   Clear
11:35 AM 50.0 °F - -14.8 °F 6% 30.24 in 10.0 mi West 6.9 mph - N/A   Clear
11:55 AM 51.8 °F - -14.8 °F 6% 30.23 in 10.0 mi West 4.6 mph - N/A   Clear
12:15 PM 51.8 °F - -14.8 °F 6% 30.22 in 10.0 mi West 6.9 mph - N/A   Clear
12:35 PM 51.8 °F - -9.4 °F 8% 30.22 in 10.0 mi West 5.8 mph - N/A   Clear
12:55 PM 51.8 °F - -5.8 °F 9% 30.21 in 10.0 mi West 6.9 mph - N/A   Clear
1:15 PM 53.6 °F - -5.8 °F 9% 30.20 in 10.0 mi West 6.9 mph - N/A   Clear
1:35 PM 53.6 °F - -4.0 °F 9% 30.19 in 10.0 mi West 11.5 mph 17.3 mph N/A   Clear
1:55 PM 53.6 °F - -2.2 °F 10% 30.19 in 10.0 mi West 13.8 mph 18.4 mph N/A   Clear
2:15 PM 53.6 °F - -2.2 °F 10% 30.18 in 10.0 mi West 15.0 mph 19.6 mph N/A   Clear
2:35 PM 53.6 °F - -2.2 °F 10% 30.18 in 10.0 mi West 11.5 mph 19.6 mph N/A   Clear
2:55 PM 53.6 °F - -0.4 °F 11% 30.18 in 10.0 mi West 12.7 mph 19.6 mph N/A   Clear
3:15 PM 51.8 °F - -2.2 °F 11% 30.18 in 10.0 mi West 13.8 mph 17.3 mph N/A   Clear
3:35 PM 51.8 °F - -2.2 °F 11% 30.18 in 10.0 mi West 12.7 mph 16.1 mph N/A   Clear
3:55 PM 51.8 °F - -2.2 °F 11% 30.18 in 10.0 mi West 13.8 mph 18.4 mph N/A   Clear
4:15 PM 51.8 °F - -2.2 °F 11% 30.18 in 10.0 mi West 13.8 mph - N/A   Clear
4:35 PM 51.8 °F - -2.2 °F 11% 30.18 in 10.0 mi West 11.5 mph - N/A   Clear
4:55 PM 51.8 °F - -2.2 °F 11% 30.18 in 10.0 mi West 12.7 mph 17.3 mph N/A   Clear
5:15 PM 50.0 °F - -2.2 °F 12% 30.19 in 10.0 mi West 11.5 mph 17.3 mph N/A   Clear
5:35 PM 50.0 °F - -2.2 °F 12% 30.19 in 10.0 mi West 11.5 mph - N/A   Clear
5:55 PM 50.0 °F - -2.2 °F 12% 30.19 in 10.0 mi West 10.4 mph - N/A   Clear
6:15 PM 46.4 °F 41.9 °F -2.2 °F 13% 30.19 in 10.0 mi West 9.2 mph - N/A   Clear
6:35 PM 44.6 °F 42.2 °F -4.0 °F 13% 30.20 in 10.0 mi WSW 4.6 mph - N/A   Clear
6:55 PM 44.6 °F 41.4 °F -4.0 °F 13% 30.20 in 10.0 mi SW 5.8 mph - N/A   Clear
7:15 PM 42.8 °F - -4.0 °F 14% 30.20 in 10.0 mi Calm Calm - N/A   Clear
7:35 PM 41.0 °F - -2.2 °F 16% 30.21 in 10.0 mi Calm Calm - N/A   Clear
7:55 PM 41.0 °F - -2.2 °F 16% 30.21 in 10.0 mi Calm Calm - N/A   Clear
8:20 PM 37.4 °F 32.1 °F -0.4 °F 20% 30.22 in 10.0 mi SE 6.9 mph - N/A   Clear
8:35 PM 37.4 °F 32.1 °F -0.4 °F 20% 30.22 in 10.0 mi SE 6.9 mph - N/A   Clear
8:55 PM 35.6 °F 31.7 °F -0.4 °F 22% 30.22 in 10.0 mi SE 4.6 mph - N/A   Clear
9:15 PM 35.6 °F 30.7 °F -0.4 °F 22% 30.22 in 10.0 mi SE 5.8 mph - N/A   Clear
9:55 PM 33.8 °F 27.7 °F -0.4 °F 23% 30.22 in 10.0 mi SSE 6.9 mph - N/A   Clear
10:15 PM 33.8 °F 28.6 °F -0.4 °F 23% 30.22 in 10.0 mi SE 5.8 mph - N/A   Clear
10:35 PM 33.8 °F 29.6 °F -0.4 °F 23% 30.22 in 10.0 mi SE 4.6 mph - N/A   Clear
10:55 PM 33.8 °F 27.0 °F -0.4 °F 23% 30.22 in 10.0 mi SE 8.1 mph - N/A   Clear
11:15 PM 32.0 °F 26.4 °F -0.4 °F 25% 30.22 in 10.0 mi SE 5.8 mph - N/A   Clear
11:35 PM 32.0 °F 25.6 °F -0.4 °F 25% 30.22 in 10.0 mi SE 6.9 mph - N/A   Clear
11:55 PM 32.0 °F 26.4 °F -2.2 °F 23% 30.22 in 10.0 mi SE 5.8 mph - N/A   Clear